[[[{"header":{"parameterUnit":"kt","parameterCategory":2,"dx":1,"dy":1,"la1":30.253999710083008,"la2":30.299108505249023,"lo1":-89.0895004272461,"lo2":-89.04439544677734,"nx":28,"ny":28,"refTime":"2022-09-20T21:00:00:Z","depth":0,"parameterNumber":1,"parameterNumberName":"U-component_of_WINDS"},"data":[0.5104,0.5152,0.5167,0.523,0.5255,0.5301,0.5323,0.5353,0.5382,0.5441,0.5478,0.55,0.5537,0.5587,0.563,0.5639,0.5657,0.5662,0.5673,0.5632,0.5628,0.5624,0.5613,0.5665,0.5665,0.5712,0.5713,0.5713,0.507,0.5094,0.5132,0.5179,0.5212,0.5215,0.5254,0.5282,0.5324,0.536,0.5398,0.5452,0.5498,0.5535,0.5582,0.5608,0.5614,0.562,0.5619,0.5625,0.5582,0.557,0.5614,0.5614,0.5614,0.5614,0.5614,0.5614,0.5014,0.5043,0.508,0.5121,0.5149,0.5181,0.5213,0.5238,0.5277,0.5327,0.534,0.539,0.5431,0.5498,0.5525,0.5565,0.5563,0.5575,0.5579,0.5582,0.5582,0.5512,0.5575,0.5575,0.5574,0.5574,0.5574,0,0.4978,0.4988,0.5026,0.5068,0.5099,0.5134,0.517,0.519,0.5221,0.5252,0.5299,0.533,0.5391,0.5439,0.5488,0.5515,0.5526,0.5528,0.5538,0.5532,0.552,0.5528,0.5457,0.5527,0.5527,0.5527,0.5527,0.5526,0.4923,0.4955,0.5002,0.5026,0.5049,0.5089,0.5117,0.5141,0.517,0.5219,0.5244,0.5292,0.5332,0.5408,0.5442,0.5489,0.5495,0.5519,0.5502,0.5495,0.5496,0.5494,0.5498,0.5523,0.5523,0.5524,0.5524,0,0.4891,0.4916,0.4971,0.5015,0.5028,0.5061,0.51,0.5131,0.5154,0.5201,0.5214,0.5251,0.5299,0.5329,0.5391,0.5405,0.5463,0.5468,0.5449,0.5452,0.5477,0.5475,0.5554,0.5566,0.5511,0.5512,0.5512,0,0.4854,0.4896,0.4932,0.4963,0.501,0.5034,0.5081,0.5106,0.5141,0.5178,0.5193,0.5228,0.5262,0.5302,0.5324,0.5376,0.5388,0.5403,0.5409,0.5402,0.5401,0.542,0.5418,0.5419,0.5419,0.5418,0.5418,0,0.4802,0.4871,0.492,0.4941,0.4994,0.5017,0.5041,0.5081,0.5109,0.515,0.5168,0.5215,0.5241,0.5278,0.5305,0.5292,0.5371,0.5359,0.5386,0.5385,0.5403,0.5402,0.5463,0.5418,0.5417,0.5417,0.5417,0,0.4778,0.4816,0.4884,0.4929,0.4946,0.498,0.5026,0.5062,0.5104,0.5119,0.5152,0.5167,0.5215,0.5201,0.5269,0.5244,0.5269,0.5288,0.529,0.5298,0.5282,0.5314,0.5368,0.5375,0.5303,0.5302,0.5301,0,0.4711,0.4787,0.4808,0.4874,0.4913,0.4926,0.4965,0.5001,0.5025,0.5063,0.509,0.5135,0.5131,0.515,0.5179,0.521,0.5242,0.5206,0.5265,0.5267,0.5254,0.5304,0.5304,0.5352,0.5289,0.529,0.5291,0,0.4663,0.4726,0.4736,0.476,0.4811,0.4845,0.4889,0.4937,0.4962,0.5001,0.504,0.5104,0.5104,0.5135,0.5153,0.5182,0.5221,0.5179,0.518,0.5186,0.5286,0.5286,0.5294,0.5227,0.5228,0.523,0.5282,0,0.4621,0.4663,0.4691,0.4744,0.4775,0.4818,0.4849,0.4877,0.489,0.4914,0.4972,0.5012,0.5065,0.5082,0.5096,0.5152,0.5148,0.5148,0.5139,0.5171,0.5189,0.5196,0.5108,0.5108,0.5108,0.5108,0,0,0.4552,0.4612,0.4634,0.4677,0.4705,0.4719,0.4762,0.4791,0.485,0.487,0.4864,0.496,0.4994,0.5062,0.5074,0.5096,0.5109,0.5097,0.5155,0.516,0.5165,0.5184,0.5191,0.5108,0.5108,0.5108,0.5108,0,0.4543,0.4572,0.4613,0.4643,0.4689,0.4712,0.4722,0.4771,0.4789,0.4846,0.4859,0.4898,0.4976,0.501,0.5037,0.5089,0.5099,0.5103,0.512,0.5153,0.5158,0.5163,0.5182,0.5189,0.5108,0.5108,0.5108,0,0.4501,0.4535,0.4559,0.462,0.4651,0.4693,0.4688,0.4733,0.4764,0.4782,0.4838,0.4865,0.4914,0.4974,0.5002,0.4998,0.5088,0.5066,0.5067,0.5072,0.5106,0.5112,0.5117,0.5046,0.5045,0.5045,0,0,0.449,0.4529,0.4575,0.4621,0.4639,0.4675,0.47,0.4716,0.4757,0.4774,0.4809,0.4851,0.4896,0.4926,0.497,0.5031,0.5044,0.5056,0.5059,0.5062,0.5067,0.5102,0.5108,0.5044,0.5044,0.5043,0,0,0.4486,0.4539,0.4544,0.4602,0.4639,0.469,0.4718,0.4726,0.4769,0.4768,0.4799,0.4812,0.4868,0.4896,0.4873,0.4968,0.4958,0.4964,0.4948,0.4953,0.4955,0.4948,0.4877,0,0,0,0,0,0.4492,0.4532,0.4536,0.455,0.4631,0.4687,0.4697,0.4723,0.4714,0.4735,0.4766,0.4775,0.489,0.487,0.4885,0.4911,0.5026,0.5029,0.5032,0.5026,0.5031,0.5034,0,0,0,0,0,0,0.4498,0.4515,0.4535,0.4587,0.4605,0.4685,0.4676,0.4684,0.4712,0.4713,0.4769,0.4777,0.4801,0.4864,0.4878,0.4901,0.4873,0.5027,0.503,0.5032,0.5028,0.5031,0.5034,0,0,0,0,0,0.4503,0.4517,0.4638,0.4586,0.4602,0.4645,0.4675,0.4682,0.4704,0.4753,0.4761,0.472,0.4801,0.4814,0.4872,0.4895,0.4864,0.4869,0.5029,0.5031,0.5033,0.5029,0,0,0,0,0,0,0.4506,0.4524,0.4642,0.4648,0.4573,0.4641,0.4652,0.4679,0.4743,0.4751,0.4706,0.4705,0.4802,0.4812,0.4822,0.4891,0.4857,0.4862,0.4865,0.503,0.5032,0.5033,0,0,0,0,0,0,0.4517,0.4529,0.4645,0.4626,0.463,0.4637,0.4647,0.4702,0.4743,0.4693,0.4694,0.4705,0.4788,0.481,0.4818,0.4901,0.4851,0.4856,0.4859,0.4861,0.5032,0.5033,0,0,0,0,0,0,0.4522,0.4533,0.4625,0.4628,0.4632,0.47,0.4686,0.4768,0.4724,0.469,0.4721,0.472,0.4786,0.4794,0.4815,0.4895,0.49,0.4851,0.4855,0.4857,0.4858,0,0,0,0,0,0,0,0.4527,0.4451,0.4607,0.463,0.4633,0.4702,0.4704,0.4705,0.4724,0.4723,0.4722,0.4721,0.4824,0.483,0.4835,0.489,0,0,0.4851,0.4853,0,0,0,0,0,0,0,0,0.4447,0.445,0.4607,0.4608,0.4609,0.4702,0.4704,0.4705,0.4724,0.4723,0.4722,0.4721,0.4826,0.483,0.4834,0,0,0,0,0,0,0,0,0,0,0,0,0,0,0,0.4607,0.4608,0,0.4703,0.4704,0.4705,0.4724,0.4723,0.4722,0.4721,0.4827,0.483,0.4834,0,0,0,0,0,0,0,0,0,0,0,0,0,0,0,0,0,0,0,0,0,0,0,0,0,0,0,0,0,0,0,0,0,0,0,0,0,0,0,0,0,0,0,0,0,0,0,0,0,0,0,0,0,0,0,0,0,0,0,0,0,0,0,0,0,0,0,0,0]}],[{"header":{"parameterUnit":"kt","parameterCategory":2,"dx":1,"dy":1,"la1":30.253999710083008,"la2":30.299108505249023,"lo1":-89.0895004272461,"lo2":-89.04439544677734,"nx":28,"ny":28,"refTime":"2022-09-20T21:00:00:Z","depth":0,"parameterNumber":2,"parameterNumberName":"V-component_of_WINDS"},"data":[0.8397,0.8357,0.8339,0.8282,0.8256,0.8213,0.8192,0.8161,0.8132,0.8075,0.8038,0.8015,0.7976,0.7926,0.7883,0.7873,0.7854,0.785,0.7838,0.7878,0.7882,0.7885,0.7894,0.7847,0.7847,0.7798,0.7798,0.7798,0.8414,0.8389,0.8357,0.8313,0.8282,0.8274,0.8237,0.8212,0.8173,0.8138,0.8103,0.8052,0.8009,0.7972,0.7926,0.7902,0.7894,0.789,0.789,0.7883,0.7925,0.7935,0.7896,0.7896,0.7896,0.7896,0.7896,0.7896,0.8441,0.8419,0.8383,0.8348,0.8321,0.8291,0.8266,0.824,0.8206,0.8161,0.8148,0.8103,0.8064,0.8003,0.7978,0.794,0.7942,0.7931,0.7928,0.7925,0.7921,0.7983,0.7932,0.7933,0.7933,0.7933,0.7933,0,0.8454,0.8442,0.8412,0.8375,0.8349,0.8319,0.8289,0.8273,0.8242,0.8216,0.8175,0.8149,0.8096,0.8054,0.8009,0.7987,0.7975,0.7974,0.7966,0.7969,0.7975,0.7965,0.803,0.7976,0.7976,0.7977,0.7977,0.7977,0.8476,0.8455,0.8414,0.8394,0.8375,0.8345,0.8323,0.8299,0.8276,0.8234,0.8214,0.8174,0.8141,0.8078,0.8049,0.8009,0.8003,0.7982,0.7997,0.7999,0.7996,0.7996,0.799,0.798,0.798,0.7979,0.7979,0,0.8488,0.8466,0.8429,0.8391,0.838,0.8358,0.8324,0.8301,0.8281,0.8246,0.8236,0.8204,0.8165,0.8139,0.8091,0.8078,0.803,0.8028,0.804,0.8037,0.8013,0.8013,0.795,0.7937,0.799,0.799,0.799,0,0.8497,0.8472,0.8438,0.8419,0.8387,0.8366,0.8334,0.8315,0.8286,0.8259,0.8245,0.8219,0.8192,0.816,0.8142,0.81,0.8093,0.8079,0.8074,0.8078,0.8079,0.8064,0.8064,0.8071,0.8071,0.8071,0.8071,0,0.8517,0.8473,0.8441,0.8428,0.8387,0.8372,0.8354,0.8324,0.8304,0.8274,0.8259,0.8226,0.8207,0.8179,0.8156,0.8166,0.8106,0.8115,0.8091,0.8091,0.8079,0.808,0.8031,0.8072,0.8072,0.8072,0.8072,0,0.8521,0.8496,0.8456,0.842,0.841,0.839,0.8356,0.8334,0.8304,0.8292,0.8269,0.8257,0.8224,0.8233,0.8184,0.8202,0.8182,0.8168,0.8166,0.816,0.817,0.8141,0.81,0.8093,0.8153,0.8154,0.8155,0,0.8547,0.8504,0.8488,0.845,0.8427,0.8413,0.839,0.8366,0.8349,0.8324,0.8305,0.8278,0.828,0.8268,0.8248,0.8226,0.8202,0.8229,0.8185,0.8184,0.8189,0.8152,0.8151,0.8112,0.8163,0.8162,0.8162,0,0.8566,0.8524,0.8519,0.8502,0.8471,0.8453,0.8428,0.8398,0.8381,0.8359,0.8334,0.8298,0.8296,0.8279,0.8269,0.8248,0.8218,0.825,0.8249,0.8241,0.8169,0.8166,0.8159,0.8214,0.8213,0.8212,0.8169,0,0.8568,0.8548,0.8535,0.8505,0.8488,0.8467,0.8447,0.8431,0.8422,0.8407,0.8373,0.8352,0.8322,0.8312,0.8305,0.8269,0.8271,0.8272,0.8279,0.8257,0.8241,0.8236,0.8302,0.8302,0.8302,0.8302,0,0,0.8597,0.8568,0.8556,0.8534,0.8519,0.8509,0.8487,0.8472,0.8442,0.843,0.8434,0.8381,0.8365,0.8325,0.8317,0.8308,0.8297,0.8309,0.8268,0.8265,0.8261,0.8245,0.824,0.8302,0.8303,0.8303,0.8303,0,0.8594,0.8583,0.8565,0.8548,0.8525,0.8512,0.8507,0.8482,0.8472,0.8443,0.8435,0.8413,0.8376,0.8356,0.8342,0.8312,0.8306,0.8306,0.8294,0.827,0.8266,0.8263,0.8247,0.8242,0.8303,0.8303,0.8303,0,0.8607,0.859,0.8581,0.8553,0.8538,0.8517,0.8519,0.8499,0.8482,0.8475,0.8447,0.8432,0.8408,0.8377,0.8363,0.8366,0.8315,0.8332,0.833,0.8328,0.8304,0.8299,0.8295,0.8347,0.8347,0.8347,0,0,0.8607,0.8591,0.8568,0.8552,0.8543,0.8525,0.8514,0.8505,0.8486,0.8478,0.8461,0.844,0.8417,0.8403,0.8381,0.8352,0.8342,0.8338,0.8336,0.8334,0.8331,0.8306,0.8302,0.8348,0.8348,0.8348,0,0,0.8607,0.8581,0.8578,0.8558,0.8539,0.8516,0.8505,0.85,0.848,0.848,0.8466,0.846,0.8431,0.8419,0.8433,0.8383,0.839,0.8387,0.8392,0.8389,0.8387,0.839,0.8432,0,0,0,0,0,0.8597,0.8584,0.8582,0.8576,0.8543,0.8517,0.8512,0.8501,0.8505,0.8495,0.848,0.8478,0.8422,0.8433,0.8427,0.8412,0.8359,0.8357,0.8355,0.8355,0.8352,0.835,0,0,0,0,0,0,0.8595,0.8588,0.8582,0.8559,0.8551,0.8518,0.8521,0.8518,0.8505,0.8505,0.848,0.8477,0.8466,0.8436,0.843,0.8416,0.8434,0.8358,0.8357,0.8355,0.8354,0.8352,0.835,0,0,0,0,0,0.8593,0.8588,0.8538,0.8559,0.8552,0.8533,0.8522,0.8519,0.8509,0.8487,0.8484,0.8502,0.8466,0.846,0.8432,0.8419,0.8438,0.8436,0.8357,0.8356,0.8355,0.8353,0,0,0,0,0,0,0.8592,0.8584,0.8537,0.8534,0.8564,0.8534,0.853,0.852,0.8492,0.8488,0.8508,0.8508,0.8466,0.8461,0.8457,0.8421,0.8441,0.8439,0.8438,0.8356,0.8355,0.8354,0,0,0,0,0,0,0.8587,0.8582,0.8535,0.8543,0.8541,0.8536,0.8532,0.8508,0.8491,0.8514,0.8513,0.8508,0.8472,0.8462,0.8458,0.8422,0.8444,0.8442,0.844,0.8439,0.8355,0.8355,0,0,0,0,0,0,0.8584,0.858,0.8544,0.8542,0.8541,0.8511,0.8515,0.8481,0.85,0.8515,0.8501,0.8501,0.8472,0.8469,0.846,0.8425,0.8423,0.8444,0.8442,0.8441,0.844,0,0,0,0,0,0,0,0.8582,0.8615,0.8552,0.8542,0.854,0.851,0.8509,0.8509,0.85,0.85,0.8501,0.8501,0.8455,0.8453,0.8451,0.8427,0,0,0.8444,0.8443,0,0,0,0,0,0,0,0,0.8616,0.8615,0.8552,0.8552,0.8551,0.851,0.8509,0.8509,0.85,0.85,0.8501,0.8501,0.8455,0.8453,0.8451,0,0,0,0,0,0,0,0,0,0,0,0,0,0,0,0.8552,0.8552,0,0.851,0.8509,0.8509,0.85,0.85,0.85,0.8501,0.8454,0.8453,0.8451,0,0,0,0,0,0,0,0,0,0,0,0,0,0,0,0,0,0,0,0,0,0,0,0,0,0,0,0,0,0,0,0,0,0,0,0,0,0,0,0,0,0,0,0,0,0,0,0,0,0,0,0,0,0,0,0,0,0,0,0,0,0,0,0,0,0,0,0,0]}]]]